カタログに戻る

COSMOS 1153

運用中軍事PO
NORAD 11680·PAYLOAD·🇷🇺 Russia

打ち上げ Jan 25, 1980 から Plesetsk Cosmodrome

Loading…

次のパス (今後24時間)

TLE

最新Source: Space-Track

元期: Sep 14, 2026, 13:44 UTC

1 11680U 80007A   26257.57247843  .00000046  00000-0  32071-4 0  9990
2 11680  82.9288 104.2696 0038417  87.6484 301.8871 13.73873040334782

AllMySatでCOSMOS 1153をリアルタイム追跡

Download on the App Store